When you browse on this site, cookies collect data to enhance your experience and personalize the content and advertising you see.
Visit our Privacy Policy to learn more. By continuing to use the site, you agree to this use of cookies and data.
  • In Latvia
  • List of Countries
  • For 7 days
  • Water Temperature
  • Satellite Maps
  • Weather Map
  • Weather Widgets
  • user-avatar
    Login

    Hourly Weather Berat

    Today, 16 June, Sunday

    Time Temperature Precipitation Wind Pressure Humidity
    00:00 +25°C° 0 mm 1 mps 742 mmHg 67%
    01:00 +25°C° 0 mm 1 mps 742 mmHg 67%
    02:00 +25°C° 0.1 mm 1 mps 742 mmHg 68%
    03:00 +24°C° 0.1 mm 1 mps 742 mmHg 69%
    04:00 +24°C° 0.1 mm 1 mps 742 mmHg 70%
    05:00 +26°C° 0.1 mm 1 mps 742 mmHg 67%
    06:00 +27°C° 0.1 mm 1 mps 742 mmHg 63%
    07:00 +29°C° 0.1 mm 1 mps 743 mmHg 60%
    08:00 +30°C° 0 mm 1 mps 743 mmHg 57%
    09:00 +31°C° 0 mm 2 mps 743 mmHg 54%
    10:00 +32°C° 0 mm 2 mps 743 mmHg 51%
    11:00 +33°C° 0.1 mm 3 mps 743 mmHg 50%
    12:00 +34°C° 0.1 mm 3 mps 743 mmHg 49%
    13:00 +34°C° 0.1 mm 3 mps 742 mmHg 49%
    14:00 +33°C° 0.1 mm 3 mps 742 mmHg 50%
    15:00 +31°C° 0.1 mm 3 mps 742 mmHg 52%
    16:00 +31°C° 0.1 mm 2 mps 742 mmHg 54%
    17:00 +29°C° 0.1 mm 2 mps 742 mmHg 61%
    18:00 +27°C° 0.1 mm 1 mps 742 mmHg 68%
    19:00 +26°C° 0.1 mm 1 mps 742 mmHg 75%
    20:00 +25°C° 0 mm 1 mps 742 mmHg 76%
    21:00 +22°C° 0 mm 0 mps 742 mmHg 77%
    22:00 +22°C° 0 mm 0 mps 742 mmHg 78%
    23:00 +21°C° 0 mm 0 mps 742 mmHg 79%

    Tomorrow, 17 June, Monday

    Time Temperature Precipitation Wind Pressure Humidity
    00:00 +21°C° 0 mm 0 mps 742 mmHg 79%
    01:00 +21°C° 0 mm 0 mps 742 mmHg 80%
    02:00 +20°C° 0 mm 0 mps 742 mmHg 79%
    03:00 +20°C° 0 mm 0 mps 742 mmHg 79%
    04:00 +20°C° 0 mm 0 mps 741 mmHg 78%
    05:00 +22°C° 0 mm 0 mps 742 mmHg 74%
    06:00 +23°C° 0 mm 0 mps 742 mmHg 69%
    07:00 +25°C° 0 mm 0 mps 742 mmHg 64%
    08:00 +28°C° 0 mm 1 mps 742 mmHg 60%
    09:00 +29°C° 0 mm 1 mps 742 mmHg 56%
    10:00 +31°C° 0 mm 2 mps 742 mmHg 52%
    11:00 +31°C° 0.2 mm 2 mps 742 mmHg 52%
    12:00 +33°C° 0.2 mm 3 mps 742 mmHg 51%
    13:00 +33°C° 0.2 mm 3 mps 742 mmHg 51%
    14:00 +31°C° 1.2 mm 3 mps 742 mmHg 56%
    15:00 +30°C° 1.2 mm 3 mps 741 mmHg 62%
    16:00 +29°C° 1.2 mm 2 mps 741 mmHg 67%
    17:00 +27°C° 0.3 mm 2 mps 741 mmHg 71%
    18:00 +26°C° 0.3 mm 1 mps 742 mmHg 75%
    19:00 +25°C° 0.3 mm 1 mps 742 mmHg 79%
    20:00 +24°C° 0 mm 1 mps 742 mmHg 78%
    21:00 +23°C° 0 mm 1 mps 742 mmHg 77%
    22:00 +23°C° 0 mm 1 mps 743 mmHg 76%
    23:00 +22°C° 0 mm 1 mps 742 mmHg 75%

    Day after tomorrow, 18 June, Tuesday

    Time Temperature Precipitation Wind Pressure Humidity
    00:00 +22°C° 0 mm 1 mps 742 mmHg 73%
    01:00 +22°C° 0 mm 1 mps 742 mmHg 72%
    02:00 +21°C° 0 mm 1 mps 742 mmHg 72%
    03:00 +21°C° 0 mm 1 mps 742 mmHg 71%
    04:00 +21°C° 0 mm 1 mps 743 mmHg 71%
    05:00 +23°C° 0 mm 1 mps 743 mmHg 67%
    06:00 +25°C° 0 mm 1 mps 743 mmHg 62%
    07:00 +26°C° 0 mm 1 mps 743 mmHg 57%
    08:00 +28°C° 0 mm 1 mps 743 mmHg 53%
    09:00 +29°C° 0 mm 1 mps 743 mmHg 48%
    10:00 +31°C° 0 mm 1 mps 743 mmHg 44%
    11:00 +31°C° 0 mm 2 mps 743 mmHg 44%
    12:00 +31°C° 0 mm 3 mps 743 mmHg 45%
    13:00 +33°C° 0 mm 4 mps 743 mmHg 46%
    14:00 +31°C° 0.1 mm 3 mps 742 mmHg 51%
    15:00 +30°C° 0.1 mm 3 mps 742 mmHg 56%
    16:00 +29°C° 0.1 mm 3 mps 742 mmHg 61%
    17:00 +28°C° 0.1 mm 2 mps 742 mmHg 68%
    18:00 +26°C° 0.1 mm 1 mps 742 mmHg 74%
    19:00 +25°C° 0.1 mm 1 mps 742 mmHg 81%
    20:00 +24°C° 0 mm 1 mps 742 mmHg 81%
    21:00 +23°C° 0 mm 1 mps 743 mmHg 82%
    22:00 +23°C° 0 mm 1 mps 743 mmHg 82%
    23:00 +22°C° 0 mm 1 mps 743 mmHg 82%

    19 June, Wednesday

    Time Temperature Precipitation Wind Pressure Humidity
    00:00 +22°C° 0 mm 1 mps 743 mmHg 81%
    01:00 +22°C° 0 mm 1 mps 742 mmHg 81%
    02:00 +21°C° 0 mm 1 mps 742 mmHg 81%
    03:00 +21°C° 0 mm 1 mps 742 mmHg 82%
    04:00 +21°C° 0 mm 1 mps 742 mmHg 82%
    05:00 +21°C° 0 mm 0 mps 742 mmHg 77%
    06:00 +22°C° 0 mm 0 mps 743 mmHg 71%
    07:00 +24°C° 0 mm 0 mps 743 mmHg 66%
    08:00 +27°C° 0 mm 1 mps 743 mmHg 59%
    09:00 +29°C° 0 mm 1 mps 743 mmHg 51%
    10:00 +30°C° 0 mm 2 mps 743 mmHg 44%
    11:00 +30°C° 0 mm 3 mps 743 mmHg 43%
    12:00 +31°C° 0 mm 3 mps 742 mmHg 42%
    13:00 +32°C° 0 mm 4 mps 742 mmHg 41%
    14:00 +32°C° 0 mm 4 mps 742 mmHg 45%
    15:00 +30°C° 0 mm 4 mps 742 mmHg 49%
    16:00 +29°C° 0 mm 4 mps 742 mmHg 52%
    17:00 +28°C° 0 mm 3 mps 742 mmHg 60%
    18:00 +26°C° 0 mm 2 mps 742 mmHg 68%
    19:00 +24°C° 0 mm 1 mps 742 mmHg 77%
    20:00 +23°C° 0 mm 1 mps 742 mmHg 78%
    21:00 +21°C° 0 mm 0 mps 742 mmHg 80%
    22:00 +20°C° 0 mm 0 mps 743 mmHg 81%
    23:00 +20°C° 0 mm 0 mps 742 mmHg 82%

    20 June, Thursday

    Time Temperature Precipitation Wind Pressure Humidity
    00:00 +20°C° 0 mm 0 mps 742 mmHg 82%
    01:00 +19°C° 0 mm 0 mps 742 mmHg 82%
    02:00 +19°C° 0 mm 0 mps 742 mmHg 82%
    03:00 +19°C° 0 mm 0 mps 742 mmHg 82%
    04:00 +19°C° 0 mm 0 mps 742 mmHg 82%
    05:00 +21°C° 0 mm 0 mps 742 mmHg 77%
    06:00 +22°C° 0 mm 0 mps 742 mmHg 71%
    07:00 +24°C° 0 mm 0 mps 743 mmHg 65%
    08:00 +27°C° 0 mm 1 mps 743 mmHg 62%
    09:00 +28°C° 0 mm 1 mps 743 mmHg 58%
    10:00 +30°C° 0 mm 2 mps 743 mmHg 54%
    11:00 +30°C° 0.2 mm 3 mps 743 mmHg 53%
    12:00 +31°C° 0.2 mm 3 mps 742 mmHg 53%
    13:00 +32°C° 0.2 mm 4 mps 742 mmHg 52%
    14:00 +30°C° 0.2 mm 3 mps 742 mmHg 54%
    15:00 +30°C° 0.2 mm 3 mps 742 mmHg 57%
    16:00 +29°C° 0.2 mm 3 mps 742 mmHg 59%
    17:00 +27°C° 0 mm 2 mps 742 mmHg 66%
    18:00 +26°C° 0 mm 2 mps 742 mmHg 72%
    19:00 +24°C° 0 mm 1 mps 742 mmHg 79%
    20:00 +23°C° 0 mm 1 mps 742 mmHg 80%
    21:00 +23°C° 0 mm 1 mps 743 mmHg 82%
    22:00 +20°C° 0 mm 0 mps 743 mmHg 83%
    23:00 +22°C° 0 mm 1 mps 743 mmHg 82%

    21 June, Friday

    Time Temperature Precipitation Wind Pressure Humidity
    00:00 +22°C° 0 mm 1 mps 743 mmHg 81%
    01:00 +22°C° 0 mm 1 mps 743 mmHg 80%
    02:00 +21°C° 0 mm 1 mps 743 mmHg 80%
    03:00 +21°C° 0 mm 1 mps 743 mmHg 81%
    04:00 +21°C° 0 mm 1 mps 743 mmHg 81%
    05:00 +21°C° 0 mm 0 mps 743 mmHg 76%
    06:00 +23°C° 0 mm 0 mps 743 mmHg 71%
    07:00 +24°C° 0 mm 0 mps 743 mmHg 66%
    08:00 +28°C° 0.1 mm 1 mps 743 mmHg 62%
    09:00 +29°C° 0.1 mm 1 mps 743 mmHg 58%
    10:00 +31°C° 0.1 mm 2 mps 744 mmHg 54%
    11:00 +31°C° 0.4 mm 2 mps 743 mmHg 53%
    12:00 +33°C° 0.4 mm 3 mps 743 mmHg 53%
    13:00 +33°C° 0.4 mm 3 mps 743 mmHg 52%
    14:00 +33°C° 0.6 mm 3 mps 743 mmHg 55%
    15:00 +31°C° 0.6 mm 3 mps 743 mmHg 58%
    16:00 +31°C° 0.6 mm 2 mps 742 mmHg 60%
    17:00 +29°C° 0.4 mm 2 mps 742 mmHg 66%
    18:00 +27°C° 0.4 mm 1 mps 742 mmHg 72%
    19:00 +26°C° 0.4 mm 1 mps 742 mmHg 78%
    20:00 +25°C° 0 mm 1 mps 743 mmHg 80%
    21:00 +25°C° 0 mm 1 mps 743 mmHg 81%
    22:00 +22°C° 0 mm 0 mps 743 mmHg 83%
    23:00 +24°C° 0 mm 1 mps 743 mmHg 82%
    Show more